Winona, MN

3:39 PM CDT on March 23, 2017 (GMT -0500)
Winona Municipal-Conrad

Weather History for KONA - February, 2014

Change the Weather History Date:

Monday, February 17, 2014

  Actual Average Record
Temperature  
Mean Temperature 22 °F -  
Max Temperature 30 °F 30 °F 59 °F (2017)
Min Temperature 14 °F 11 °F -12 °F (1993)
Degree Days  
Heating Degree Days 43    
Moisture  
Dew Point 20 °F    
Average Humidity 81    
Maximum Humidity 100    
Minimum Humidity 63    
Precipitation  
Precipitation 0.05 in - - ()
Sea Level Pressure  
Sea Level Pressure 29.84 in    
Wind  
Wind Speed 9 mph (SE)    
Max Wind Speed 18 mph    
Max Gust Speed 23 mph    
Visibility 6 miles    
Events Fog , Snow    
Averages and records for this station are not official NWS values.
T = Trace of Precipitation, MM = Missing Value Source: NWS Daily Summary

Daily Weather History Graph

Daily Weather History Graph

Search for Another Location

Airport or City:

Trip Planner

Search our weather history database for the weather conditions in past years. The results will help you decide how hot, cold, wet, or windy it might be!

Date:

Astronomy

Feb. 17, 2014 Rise Set
Actual Time 7:03 AM CST 5:39 PM CST
Civil Twilight 6:33 AM CST 6:08 PM CST
Nautical Twilight 5:59 AM CST 6:42 PM CST
Astronomical Twilight 5:26 AM CST 7:16 PM CST
Moon 8:42 PM CST (2/17) 7:56 AM CST (2/17)
Length of Visible Light 11h 35m
Length of Day
10h 36m
Waning Gibbous, 93% of the Moon is Illuminated
Feb 17
Waning Gibbous
Feb 22
Last Quarter
Mar 1
New
Mar 8
First Quarter
Mar 16
Full

Hourly Weather History & Observations

Time (CST) Temp. Windchill Dew Point Humidity Pressure Visibility Wind Dir Wind Speed Gust Speed Precip Events Conditions
12:18 AM 23.0 °F 12.4 °F 12.2 °F 63% 30.12 in 10.0 mi SSE 10.4 mph - N/A   Mostly Cloudy
12:39 AM 23.0 °F 12.4 °F 12.2 °F 63% 30.11 in 10.0 mi SE 10.4 mph 16.1 mph N/A   Scattered Clouds
12:59 AM 23.0 °F 12.4 °F 14.0 °F 68% 30.11 in 10.0 mi SE 10.4 mph - N/A   Mostly Cloudy
1:18 AM 23.0 °F 10.1 °F 14.0 °F 68% 30.10 in 10.0 mi SE 15.0 mph 19.6 mph N/A   Mostly Cloudy
1:39 AM 23.0 °F 11.7 °F 14.0 °F 68% 30.09 in 10.0 mi SE 11.5 mph 17.3 mph N/A   Overcast
1:59 AM 23.0 °F 12.4 °F 15.8 °F 74% 30.10 in 10.0 mi SSE 10.4 mph - N/A   Overcast
2:18 AM 23.0 °F 13.1 °F 15.8 °F 74% 30.09 in 10.0 mi SE 9.2 mph - N/A   Overcast
2:39 AM 23.0 °F 11.1 °F 15.8 °F 74% 30.07 in 10.0 mi SSE 12.7 mph 17.3 mph N/A   Overcast
2:58 AM 23.0 °F 10.6 °F 15.8 °F 74% 30.04 in 10.0 mi SE 13.8 mph 19.6 mph N/A   Overcast
3:18 AM 23.0 °F 10.6 °F 15.8 °F 74% 30.02 in 10.0 mi SE 13.8 mph 19.6 mph N/A   Overcast
3:39 AM 23.0 °F 10.6 °F 15.8 °F 74% 30.01 in 10.0 mi SSE 13.8 mph 21.9 mph N/A   Overcast
3:58 AM 23.0 °F 10.1 °F 15.8 °F 74% 29.99 in 10.0 mi SE 15.0 mph 19.6 mph N/A   Overcast
4:18 AM 23.0 °F 10.1 °F 15.8 °F 74% 29.97 in 10.0 mi SE 15.0 mph - N/A   Overcast
4:39 AM 23.0 °F 9.2 °F 17.6 °F 80% 29.95 in 10.0 mi SE 17.3 mph 21.9 mph N/A   Overcast
4:58 AM 23.0 °F 10.1 °F 17.6 °F 80% 29.93 in 10.0 mi SE 15.0 mph - N/A   Overcast
5:18 AM 23.0 °F 9.6 °F 17.6 °F 80% 29.92 in 10.0 mi SE 16.1 mph 23.0 mph N/A   Overcast
5:39 AM 23.0 °F 10.1 °F 17.6 °F 80% 29.89 in 10.0 mi SE 15.0 mph - N/A   Mostly Cloudy
5:58 AM 23.0 °F 8.7 °F 17.6 °F 80% 29.88 in 10.0 mi SE 18.4 mph 21.9 mph N/A   Mostly Cloudy
6:18 AM 23.0 °F 10.6 °F 17.6 °F 80% 29.88 in 10.0 mi SE 13.8 mph - N/A   Overcast
6:39 AM 24.8 °F 14.0 °F 17.6 °F 74% 29.87 in 10.0 mi SSE 11.5 mph - N/A   Overcast
6:58 AM 24.8 °F 14.0 °F 17.6 °F 74% 29.85 in 10.0 mi SE 11.5 mph 18.4 mph N/A Snow Light Snow
7:18 AM 24.8 °F 14.6 °F 17.6 °F 74% 29.85 in 10.0 mi SSE 10.4 mph 17.3 mph N/A Snow Light Snow
7:39 AM 23.0 °F 11.7 °F 19.4 °F 86% 29.84 in 1.8 mi SE 11.5 mph 16.1 mph N/A Snow Light Snow
7:58 AM 23.0 °F 11.7 °F 19.4 °F 86% 29.84 in 1.0 mi SE 11.5 mph - N/A Snow Light Snow
8:18 AM 23.0 °F 13.1 °F 19.4 °F 86% 29.84 in 0.8 mi SE 9.2 mph - N/A Snow Light Snow
8:39 AM 23.0 °F 12.4 °F 21.2 °F 93% 29.83 in 0.8 mi SE 10.4 mph - 0.01 in Snow Light Snow
8:59 AM 23.0 °F 14.7 °F 21.2 °F 93% 29.83 in 0.8 mi SE 6.9 mph - N/A Snow Light Snow
9:19 AM 23.0 °F 13.1 °F 21.2 °F 93% 29.81 in 1.5 mi SSE 9.2 mph - N/A Snow Light Snow
9:39 AM 24.8 °F 15.3 °F 21.2 °F 86% 29.81 in 1.0 mi SSE 9.2 mph - 0.01 in Snow Light Snow
9:58 AM 24.8 °F 15.3 °F 21.2 °F 86% 29.80 in 1.0 mi SSE 9.2 mph - N/A Snow Light Snow
10:19 AM 24.8 °F 15.3 °F 21.2 °F 86% 29.80 in 1.8 mi SSE 9.2 mph - N/A Snow Light Snow
10:39 AM 24.8 °F 15.3 °F 21.2 °F 86% 29.80 in 2.0 mi SSE 9.2 mph - N/A Snow Light Snow
10:58 AM 24.8 °F 16.9 °F 21.2 °F 86% 29.80 in 0.8 mi SSE 6.9 mph - N/A Snow Light Snow
11:19 AM 24.8 °F 16.9 °F 21.2 °F 86% 29.78 in 1.0 mi SSE 6.9 mph - N/A Snow Light Snow
11:38 AM 24.8 °F 16.1 °F 21.2 °F 86% 29.77 in 0.8 mi SSE 8.1 mph - N/A Snow Light Snow
11:59 AM 26.6 °F 17.5 °F 21.2 °F 80% 29.76 in 1.2 mi SSE 9.2 mph - N/A Snow Light Snow
12:18 PM 26.6 °F 20.0 °F 23.0 °F 86% 29.75 in 1.2 mi SSE 5.8 mph - N/A Snow Light Snow
12:38 PM 28.4 °F 20.4 °F 23.0 °F 80% 29.75 in 2.0 mi SSE 8.1 mph - N/A Snow Light Snow
12:59 PM 28.4 °F 20.4 °F 23.0 °F 80% 29.74 in 1.5 mi SSE 8.1 mph - N/A Snow Light Snow
1:18 PM 28.4 °F 23.3 °F 23.0 °F 80% 29.72 in 2.5 mi South 4.6 mph - 0.01 in Snow Light Snow
1:38 PM 28.4 °F 23.3 °F 21.2 °F 74% 29.72 in 4.0 mi SSE 4.6 mph - 0.01 in Snow Light Snow
1:59 PM 28.4 °F 22.2 °F 21.2 °F 74% 29.70 in 2.0 mi SSE 5.8 mph - N/A Snow Light Snow
2:18 PM 28.4 °F 22.2 °F 23.0 °F 80% 29.69 in 2.0 mi SSE 5.8 mph - 0.01 in Snow Light Snow
2:38 PM 28.4 °F 23.3 °F 23.0 °F 80% 29.69 in 1.5 mi SE 4.6 mph - 0.01 in Snow Light Snow
2:59 PM 28.4 °F - 23.0 °F 80% 29.69 in 1.8 mi Calm Calm - N/A Snow Light Snow
3:18 PM 28.4 °F - 23.0 °F 80% 29.69 in 1.5 mi Calm Calm - 0.01 in Snow Light Snow
3:38 PM 28.4 °F - 23.0 °F 80% 29.70 in 1.5 mi Calm Calm - 0.01 in Snow Light Snow
3:59 PM 28.4 °F - 24.8 °F 86% 29.70 in 1.8 mi Calm Calm - N/A Snow Light Snow
4:18 PM 28.4 °F - 24.8 °F 86% 29.70 in 3.0 mi Calm Calm - N/A Snow Light Snow
4:38 PM 30.2 °F - 26.6 °F 86% 29.71 in 4.0 mi Calm Calm - N/A Snow Light Snow
4:59 PM 30.2 °F - 26.6 °F 86% 29.72 in 5.0 mi Calm Calm - N/A   Overcast
5:18 PM 30.2 °F - 24.8 °F 80% 29.72 in 7.0 mi Calm Calm - N/A   Overcast
5:38 PM 30.2 °F 25.4 °F 26.6 °F 86% 29.73 in 7.0 mi WNW 4.6 mph - N/A   Overcast
5:59 PM 30.2 °F 21.9 °F 24.8 °F 80% 29.74 in 10.0 mi NW 9.2 mph - N/A   Overcast
6:18 PM 30.2 °F 23.4 °F 24.8 °F 80% 29.75 in 10.0 mi NW 6.9 mph - N/A   Overcast
6:38 PM 30.2 °F 26.7 °F 24.8 °F 80% 29.75 in 7.0 mi North 3.5 mph - N/A   Overcast
6:59 PM 30.2 °F - 26.6 °F 86% 29.75 in 7.0 mi Calm Calm - N/A   Overcast
7:18 PM 30.2 °F 23.4 °F 26.6 °F 86% 29.77 in 7.0 mi NNW 6.9 mph - N/A   Overcast
7:38 PM 30.2 °F 23.4 °F 24.8 °F 80% 29.77 in 7.0 mi NNW 6.9 mph - N/A   Overcast
7:59 PM 30.2 °F - 24.8 °F 80% 29.77 in 7.0 mi Calm Calm - N/A   Overcast
8:18 PM 30.2 °F 26.7 °F 24.8 °F 80% 29.78 in 7.0 mi North 3.5 mph - N/A   Overcast
8:38 PM 30.2 °F 24.3 °F 26.6 °F 86% 29.78 in 7.0 mi NNW 5.8 mph - N/A   Overcast
8:59 PM 30.2 °F 21.9 °F 26.6 °F 86% 29.79 in 7.0 mi NW 9.2 mph - N/A   Overcast
9:18 PM 30.2 °F 23.4 °F 24.8 °F 80% 29.80 in 10.0 mi NW 6.9 mph - N/A   Overcast
9:38 PM 28.4 °F 23.3 °F 23.0 °F 80% 29.80 in 7.0 mi NNW 4.6 mph - N/A   Overcast
9:59 PM 28.4 °F 22.2 °F 23.0 °F 80% 29.81 in 7.0 mi NW 5.8 mph - N/A   Scattered Clouds
10:18 PM 23.0 °F - 21.2 °F 93% 29.81 in 5.0 mi Calm Calm - N/A   Clear
10:38 PM 21.2 °F - 17.6 °F 86% 29.82 in 5.0 mi Calm Calm - N/A   Clear
10:59 PM 17.6 °F - 15.8 °F 93% 29.82 in 2.5 mi Calm Calm - N/A Snow Light Snow
11:18 PM 19.4 °F - 19.4 °F 100% 29.83 in 2.0 mi Calm Calm - N/A   Clear
11:38 PM 14.0 °F - 14.0 °F 100% 29.84 in 0.2 mi Calm Calm - N/A Fog Light Freezing Fog
11:59 PM 14.0 °F - 14.0 °F 100% 29.83 in 0.2 mi Calm Calm - N/A Fog Light Freezing Fog